SCP
0 0 0 0 0 0 0 0 0 0 0 0 0 0 0 0 0 1 2 2 2 2 2 2 3 3 2 2 1 1 1 2 2 1 1 1 0 0 0 0 0 0 0 0
0 0 0 0 0 0 0 0 0 0 0 0 0 0 0 0 0 1 2 2 2 2 2 2 2 2 2 2 1 1 1 2 2 1 1 1 0 0 0 0 0 0 0 0
0 0 0 0 0 0 0 0 0 0 0 0 0 0 0 0 0 1 2 2 2 2 1 1 2 2 2 2 2 1 1 1 2 1 1 1 1 1 0 0 0 0 0 0
0 0 0 0 0 0 0 0 0 0 0 0 0 0 0 0 1 1 1 2 2 1 1 1 1 2 2 2 2 2 1 1 2 2 2 1 1 1 1 0 0 0 0 0
0 0 0 0 0 0 0 0 0 0 0 0 0 0 0 0 1 1 1 1 1 1 1 1 1 1 1 1 2 2 1 1 2 2 2 2 2 1 1 0 0 0 0 0
0 0 0 0 0 0 0 0 0 0 0 0 0 0 0 1 1 1 1 1 1 1 1 1 1 1 1 1 1 1 1 2 2 2 2 2 2 1 1 0 0 1 1 1
0 0 0 0 0 0 0 0 0 0 0 0 0 0 0 1 1 1 1 1 1 1 1 0 1 1 1 1 1 1 2 2 2 2 2 2 2 1 0 0 0 1 1 1
0 0 0 0 0 0 0 0 0 0 0 0 0 0 1 1 1 1 1 1 1 1 1 1 1 1 1 1 1 1 2 2 2 2 2 2 1 1 0 0 0 1 1 1
0 0 0 0 0 0 0 0 0 0 0 0 0 0 1 1 1 1 1 1 1 1 1 1 1 1 1 1 2 1 2 2 2 2 1 1 1 1 1 1 0 0 0 1
0 0 0 0 0 0 0 0 0 0 0 0 0 0 1 1 0 0 1 1 1 1 1 1 1 1 1 2 2 1 1 1 1 2 1 1 1 1 1 1 1 1 1 1
0 0 0 0 1 1 1 0 0 0 0 0 0 0 1 0 0 0 1 1 1 1 1 1 1 1 1 2 2 1 1 1 1 1 1 1 1 1 1 1 1 1 1 1
0 0 0 0 1 1 1 0 0 0 0 0 0 0 0 0 0 1 1 1 1 1 1 1 1 1 1 2 1 1 1 1 1 1 1 1 1 1 1 1 0 0 1 1
0 0 0 0 0 0 0 0 0 0 0 0 0 0 1 1 1 1 1 1 1 0 0 1 1 1 1 2 1 1 1 1 1 2 2 1 1 1 1 1 0 0 0 0
0 0 0 0 1 1 1 1 0 0 0 0 1 1 1 1 1 1 1 1 0 0 0 1 1 1 2 2 1 1 1 1 2 2 2 2 2 1 1 1 0 0 0 0
0 0 0 0 1 1 1 1 1 0 0 0 1 1 1 1 1 1 1 1 1 1 1 1 1 2 2 1 1 1 1 2 2 3 2 2 2 1 1 1 0 0 0 0
0 0 0 0 0 1 1 1 0 0 0 0 0 0 1 1 1 1 1 1 1 1 1 1 2 2 2 1 1 1 1 2 2 2 2 2 2 2 1 1 1 0 0 0
0 0 0 0 0 0 0 0 0 0 0 0 0 0 0 1 1 1 1 1 1 1 1 1 1 1 1 1 1 1 2 2 2 2 2 2 2 2 1 1 1 0 0 0
0 0 0 0 0 0 0 0 0 0 0 0 0 1 1 1 1 1 1 1 1 1 1 1 1 1 1 1 1 1 2 2 1 1 1 2 2 2 1 1 1 0 0 0
0 0 0 0 0 0 1 1 0 0 0 0 0 1 1 1 1 1 1 1 1 1 1 0 1 1 1 1 1 1 2 2 2 1 1 1 2 2 1 1 1 0 0 0
0 0 0 0 0 1 1 1 1 1 0 0 0 1 1 1 1 1 1 1 1 0 0 0 0 1 1 0 0 1 2 2 1 1 1 1 1 1 1 1 0 0 0 0
0 0 0 0 0 0 1 1 1 1 1 1 1 1 1 1 1 1 1 1 1 0 0 0 0 1 0 0 1 1 1 2 1 1 1 1 1 1 1 1 0 0 0 1
0 0 0 0 0 0 0 1 1 1 0 0 1 1 1 1 1 1 1 0 0 0 0 0 0 0 0 0 1 1 1 1 1 1 1 1 1 1 1 1 1 1 1 1
0 0 0 0 0 0 0 0 0 0 0 0 0 0 0 0 0 0 0 0 0 0 0 0 0 0 0 0 0 1 1 1 1 1 2 2 2 2 1 1 1 1 1 1
0 0 0 0 0 0 0 0 0 0 0 0 0 0 0 0 0 0 0 0 0 0 0 0 0 0 0 0 0 0 0 0 1 1 1 2 2 2 2 1 1 1 1 1
0 0 0 0 0 0 0 0 0 0 0 0 0 0 0 0 0 0 0 0 0 0 0 0 0 0 0 0 0 0 0 0 1 1 1 1 1 1 1 1 1 1 1 0
0 0 0 0 0 0 0 0 0 0 0 0 0 0 0 0 0 0 0 0 0 0 0 0 0 0 0 0 0 0 0 1 1 1 1 0 1 1 1 1 1 1 1 1
0 0 0 0 0 0 0 0 0 0 0 0 0 0 0 0 0 0 0 0 0 0 0 0 0 0 0 0 0 1 1 1 1 1 0 0 0 0 1 1 1 1 1 0
Wind_Speed
9 8 8 9 9 10 10 9 8 6 5 4 2 2 2 2 2 3 4 4 5 6 6 6 7 7 6 6 6 7 7 6 5 5 5 4 3 3 2 2 3 3 3 3
10 10 9 11 11 11 12 11 10 8 6 3 1 1 1 1 2 3 3 4 5 6 6 6 6 6 6 6 7 7 7 6 6 6 5 4 4 3 2 2 2 2 2 3
8 8 10 11 10 10 9 9 9 8 5 2 2 2 1 1 1 2 2 2 3 4 5 6 6 7 7 7 6 7 7 6 6 6 6 5 4 4 3 3 2 1 2 3
7 7 9 4 2 4 6 6 5 5 2 2 2 1 1 1 1 1 2 2 3 3 3 4 5 6 7 7 7 7 7 7 7 6 6 5 5 4 4 3 2 2 2 3
5 7 8 5 4 5 6 6 4 4 2 2 2 1 1 1 1 0 0 1 2 2 2 3 3 4 6 7 7 6 6 7 7 6 6 6 5 5 4 3 3 2 2 3
5 6 6 2 2 3 4 5 2 2 2 2 1 2 1 0 1 1 0 0 1 2 2 2 2 3 5 6 7 7 6 7 7 6 6 6 5 5 3 3 3 3 3 3
8 8 6 3 1 1 4 1 1 2 2 2 2 2 1 2 2 2 1 1 1 1 1 1 2 3 5 5 5 6 6 6 6 6 6 6 5 4 4 3 3 3 3 3
7 8 6 1 2 3 1 1 2 2 2 2 1 1 1 2 2 2 2 1 1 1 1 1 1 2 3 4 4 5 6 6 6 6 6 5 5 4 4 4 4 3 3 2
4 4 2 3 2 2 2 2 2 2 3 2 2 1 1 2 2 2 2 2 1 1 1 1 1 1 3 3 4 5 6 6 6 6 5 5 6 5 4 4 3 3 3 2
4 4 3 3 4 3 4 4 3 2 3 3 2 1 1 1 1 2 2 2 2 2 2 2 1 1 2 3 4 5 5 5 5 5 5 5 4 4 4 4 4 4 4 3
6 5 4 4 4 4 4 4 3 2 3 2 2 2 1 1 2 2 2 2 2 2 2 2 2 2 2 2 4 4 5 5 5 4 5 4 4 3 4 4 5 5 4 4
5 5 5 4 3 4 4 4 4 3 3 2 1 1 1 1 1 2 2 2 2 2 2 2 2 2 2 2 3 4 4 4 4 4 4 4 4 2 2 3 5 5 5 5
6 6 5 4 3 3 4 4 4 3 2 2 1 1 1 1 1 1 2 2 3 2 2 2 2 3 3 3 2 3 3 3 3 3 4 4 4 4 3 1 2 5 5 6
5 5 4 4 4 4 4 4 4 2 2 1 1 1 1 1 1 2 2 2 2 2 2 2 2 2 2 2 2 2 3 4 4 3 3 3 4 4 4 4 3 2 3 5
5 5 4 3 4 4 4 4 3 2 1 1 0 0 1 1 1 1 1 2 2 1 2 2 1 1 1 1 2 2 2 2 3 3 3 3 3 3 3 3 3 3 2 3
4 3 3 3 3 4 4 5 4 2 1 1 1 1 0 1 1 1 1 3 3 2 1 1 1 1 1 1 1 1 2 3 3 3 3 3 3 3 3 3 3 3 3 3
3 3 3 3 4 4 4 5 4 2 1 1 1 1 0 1 1 1 1 2 2 2 1 1 1 1 1 1 1 1 1 2 3 2 3 3 3 3 3 4 3 3 3 3
5 4 4 3 3 4 4 4 3 2 2 1 1 1 1 1 1 1 1 1 2 2 1 1 1 1 1 1 1 1 1 2 2 2 2 2 3 3 3 3 3 3 2 3
4 3 3 3 3 3 3 3 3 2 1 1 1 1 2 1 1 1 1 2 1 1 1 1 1 1 1 1 0 1 1 1 1 1 1 2 2 2 2 2 3 3 3 3
3 3 2 2 3 3 3 3 2 2 1 1 1 1 1 1 1 2 2 1 0 0 1 1 1 1 1 1 0 1 1 2 1 1 1 2 2 2 2 2 2 2 2 3
2 2 2 2 2 3 3 3 2 2 1 1 1 2 1 1 1 2 2 1 1 1 1 1 1 1 1 1 0 1 1 1 1 2 2 1 2 2 2 2 2 2 2 2
2 2 2 2 2 3 3 3 2 2 1 1 1 1 1 1 1 1 1 1 1 2 1 1 1 2 2 1 0 1 1 1 1 1 1 1 1 2 1 1 1 1 2 2
3 2 2 2 2 3 3 2 2 1 1 1 1 1 1 1 1 1 1 1 1 2 1 1 2 2 2 1 1 1 2 1 1 1 1 1 2 2 1 1 1 1 1 1
4 3 2 2 2 2 2 2 2 1 1 1 1 2 2 1 0 1 1 2 2 2 1 2 3 2 1 0 1 1 1 1 1 1 1 1 1 1 1 1 1 1 1 1
4 3 3 3 2 1 2 1 1 1 1 1 1 1 0 0 1 1 2 2 3 2 1 2 2 2 1 0 1 1 1 1 1 1 1 1 1 1 1 1 1 1 1 1
4 2 2 2 2 1 1 0 0 0 1 1 1 1 1 1 2 2 2 2 3 2 1 1 1 1 0 1 1 1 1 2 1 1 2 2 2 2 2 2 1 1 1 1
3 1 1 1 1 1 1 1 0 0 1 1 1 1 1 1 1 2 2 2 2 1 1 1 1 1 1 1 1 1 1 1 1 1 2 2 2 2 1 1 1 1 1 1
Wind_Direction
268 271 271 272 260 254 255 254 252 257 262 263 230 179 157 150 153 143 152 159 159 159 162 164 171 171 169 166 161 158 158 159 156 154 152 160 163 163 161 155 152 143 139 126
262 264 265 263 260 255 254 257 249 253 256 260 227 129 112 127 148 149 162 171 165 165 163 167 174 169 162 165 167 163 163 162 155 154 152 159 159 154 146 136 132 134 139 126
261 261 273 259 247 242 247 251 246 251 257 247 228 152 157 172 156 164 163 159 154 167 171 177 177 171 170 173 169 163 161 156 155 159 157 166 165 157 159 160 148 164 161 131
263 261 252 252 250 226 241 256 264 261 254 267 259 179 137 122 157 159 156 181 175 178 177 185 178 173 171 171 167 165 163 160 159 163 162 168 170 168 170 168 168 182 183 142
257 264 265 256 243 227 231 249 256 265 268 275 286 188 152 109 120 138 142 169 170 182 182 176 176 170 167 168 166 166 165 163 164 164 163 168 173 175 174 172 172 183 181 163
245 257 260 252 225 241 240 239 266 272 268 262 253 228 202 163 128 106 44 131 153 166 176 167 165 163 165 170 168 170 166 164 162 164 165 172 176 174 174 173 176 181 189 182
245 251 260 284 276 197 231 242 339 284 281 263 242 275 180 154 124 118 100 122 134 143 164 169 161 156 166 168 171 166 158 157 158 163 168 171 168 168 173 174 176 185 193 195
236 245 248 279 209 212 283 20 336 318 311 306 329 328 131 129 118 124 118 129 131 133 141 154 160 161 168 171 161 149 150 154 160 164 169 166 159 168 173 171 176 184 190 195
232 236 310 329 296 307 326 301 304 318 321 316 304 276 144 145 152 151 154 155 147 145 156 163 185 176 168 160 145 143 146 153 159 163 163 160 162 170 172 174 179 188 185 194
245 247 263 303 316 314 314 320 319 306 299 301 298 277 151 160 171 172 165 159 161 176 192 194 196 188 170 151 147 147 154 159 160 159 159 162 163 171 176 184 188 190 189 191
262 274 290 287 308 324 325 324 314 286 268 266 277 279 192 194 197 193 171 158 178 200 201 203 190 196 167 162 163 162 163 162 160 160 162 162 161 175 183 191 192 189 191 182
260 264 267 273 290 304 315 315 308 299 290 278 275 255 245 222 198 190 183 172 181 202 205 203 196 197 171 172 172 170 170 167 163 163 162 162 161 162 181 191 182 177 172 169
280 289 288 301 312 310 306 307 301 289 284 278 272 213 202 188 186 187 192 185 186 193 197 193 200 195 176 178 185 180 171 163 160 165 166 170 173 171 173 182 167 172 176 175
298 296 297 314 315 316 307 302 301 291 290 279 252 212 179 175 177 188 188 176 163 169 182 176 185 188 177 178 196 191 173 166 162 163 170 177 179 176 175 176 177 187 197 196
285 291 297 313 321 323 323 316 309 301 303 303 309 272 218 195 181 181 172 157 145 166 179 169 167 170 143 171 197 191 178 169 163 165 177 184 177 173 175 180 184 182 166 177
273 287 296 308 319 325 326 315 308 303 314 335 325 310 241 172 153 150 148 145 153 170 167 154 166 157 128 145 193 169 171 170 164 168 182 181 176 176 178 182 188 191 190 177
275 271 281 289 298 307 312 310 309 309 309 306 297 304 288 139 140 135 118 123 134 133 123 126 131 111 113 121 146 168 164 163 171 183 184 184 181 184 186 184 187 189 189 178
276 270 267 273 277 283 290 295 300 305 290 296 307 294 260 189 172 151 141 128 115 97 82 85 89 91 101 127 156 174 167 172 178 185 187 185 184 189 188 180 180 180 167 165
286 285 288 291 289 287 289 291 296 299 295 280 264 275 278 246 183 154 146 132 128 116 29 51 62 102 92 97 168 180 176 171 167 162 174 182 187 184 182 187 185 178 168 160
299 300 295 294 296 290 290 302 307 311 300 270 244 247 261 250 176 155 136 119 104 99 82 65 84 89 102 107 32 196 172 164 165 177 192 194 191 192 192 192 178 166 165 165
313 306 306 297 295 294 294 298 301 297 287 264 241 237 237 234 188 146 129 114 40 56 77 82 86 76 64 81 195 190 175 170 180 185 193 197 194 194 192 182 173 173 172 170
318 303 297 291 284 287 292 293 287 285 274 273 279 271 208 188 162 118 106 116 111 102 102 93 90 86 81 69 125 148 156 169 179 176 176 182 183 182 187 193 184 175 163 160
314 310 304 291 281 281 288 292 288 277 240 226 217 212 185 181 178 155 144 114 115 109 89 81 91 100 92 81 122 126 121 127 138 143 162 180 181 177 173 173 167 152 146 142
325 321 318 317 315 309 310 319 324 322 291 238 206 187 169 168 140 79 106 121 104 110 99 121 132 137 134 161 137 124 121 129 131 129 134 136 134 130 134 143 148 139 129 126
324 323 324 323 316 322 324 323 349 356 349 46 74 96 120 104 112 114 109 116 117 116 100 124 144 154 179 120 118 119 118 124 130 129 124 126 125 125 126 121 115 110 110 117
325 335 336 326 331 337 333 1 51 78 83 58 35 48 68 79 88 90 97 109 113 115 109 127 143 154 129 86 90 97 105 111 109 115 124 121 120 122 124 118 108 105 110 120
321 327 323 320 342 1 359 353 47 100 108 104 50 18 66 101 109 104 100 106 111 120 124 125 131 121 92 96 98 94 94 97 100 105 113 117 116 116 119 121 120 117 115 116